Location: Unspecified
(0.0000°N, 0.0000°E)
Time: 17:34:31
(UTC+00:00)

BlueWalker 3 - Pass Details

Date: 25 March 2026
Orbit: 449 x 457 km, 53.2° (Epoch: 17 April)

Event Time Altitude Azimuth Distance (km) Brightness Sun altitude
Exits shadow 04:19:00 20° 140° (SE) 1,118 4.0 -26.8°
Drops below altitude 10° 04:20:10 10° 142° (SE) 1,583 4.9 -26.5°
Sets 04:22:18 0° 143° (SE) 2,456 5.9 -25.9°
